This demonstration page uses our WeatherBlox Daily Observations layout. Learn more.

Left ArrowRight Arrow

34.74481, -87.66753

Hourly Observations for January 23, 2020

Temp ( °F °C ) Dew Point ( °F °C ) Humidity (%) Winds ( mph kmh ) Pressure ( in mb ) Visibility ( mi km ) Precip ( " mm )
12:53 am 00:53 Mostly Cloudy 40 4.4 24 -4.4 53 53 ESE 5 7 30.18 1022 10 16 0.00 0.00
1:53 am 01:53 Mostly Clear 40 4.4 25 -3.9 55 55 E 3 6 30.18 1022 10 16 0.00 0.00
2:53 am 02:53 Cloudy 40 4.4 27 -2.8 60 60 Calm 30.18 1022 10 16 0.00 0.00
3:53 am 03:53 Cloudy 41 5 25 -3.9 53 53 ESE 3 6 30.17 1022 10 16 0.00 0.00
4:53 am 04:53 Cloudy 41 5 24 -4.4 51 51 E 5 7 30.16 1022 10 16 0.00 0.00
5:53 am 05:53 Cloudy 37 2.8 24 -4.4 59 59 ESE 6 9 30.15 1021 10 16 0.00 0.00
6:53 am 06:53 Cloudy 41 5 24 -4.4 51 51 Calm 30.14 1021 10 16 0.00 0.00
7:53 am 07:53 Cloudy 42 5.6 27 -2.8 55 55 Calm 30.15 1021 10 16 0.00 0.00
8:53 am 08:53 Cloudy 44 6.7 25 -3.9 47 47 ESE 3 6 30.15 1021 10 16 0.00 0.00
9:44 am 09:44 Cloudy 46 7.8 26 -3.3 46 46 SE 9 15 30.17 1022 10 16 0.00 0.00
9:53 am 09:53 Cloudy 45 7.2 27 -2.8 49 49 SE 9 15 30.16 1021 10 16 0.00 0.00
10:53 am 10:53 Cloudy with Light Rain 44 6.7 35 1.7 71 71 SE 8 13 30.14 1021 10 16 0.00 0.00
11:53 am 11:53 Cloudy with Light Rain 43 6.1 39 3.9 86 86 ESE 12 19 30.09 1019 9 14 0.01 0.25
12:24 pm 12:24 Cloudy 43 6.1 39 3.9 86 86 SE 10 17 30.09 1019 10 16 0.01 0.25
5:39 pm 17:39 Cloudy with Heavy Rain 44 6.7 41 5 89 89 NW 6 9 29.99 1016 2 3 0.02 0.51
5:53 pm 17:53 Cloudy with Heavy Rain 44 6.7 41 5 89 89 NNW 3 6 29.99 1016 3 4 0.04 1.02
6:02 pm 18:02 Cloudy with Rain 44 6.7 41 5 89 89 NNW 5 7 30.01 1016 3 5 0.01 0.25
6:13 pm 18:13 Cloudy with Heavy Rain 44 6.7 42 5.6 93 93 NNE 3 6 30.00 1016 3 4 0.03 0.76
6:27 pm 18:27 Cloudy with Heavy Rain 43 6.1 41 5 93 93 ENE 5 7 30.00 1016 3 4 0.06 1.52
6:37 pm 18:37 Cloudy with Heavy Rain 43 6.1 41 5 93 93 ENE 8 13 29.98 1015 3 5 0.08 2.03
6:53 pm 18:53 Cloudy with Heavy Rain 44 6.7 41 5 89 89 E 9 15 29.96 1015 3 5 0.11 2.79
7:53 pm 19:53 Cloudy with Light Rain 45 7.2 43 6.1 93 93 SE 9 15 29.94 1014 10 16 0.18 4.57
8:22 pm 20:22 Cloudy with Light Rain 46 7.8 43 6.1 89 89 WSW 5 7 29.95 1014 10 16 0.07 1.78
8:53 pm 20:53 Cloudy with Light Rain 45 7.2 43 6.1 93 93 S 6 9 29.94 1014 6 10 0.15 3.81
9:33 pm 21:33 Cloudy with Light Rain 46 7.8 44 6.7 93 93 SSE 7 11 29.95 1014 10 16 0.09 2.29
9:53 pm 21:53 Cloudy with Light Rain 46 7.8 44 6.7 93 93 SSE 7 11 29.94 1014 10 16 0.13 3.30
10:35 pm 22:35 Cloudy with Rain 46 7.8 44 6.7 93 93 SE 6 9 29.95 1014 3 5 0.07 1.78
10:53 pm 22:53 Cloudy with Mist and Fog 46 7.8 45 7.2 96 96 SE 3 6 29.94 1014 4 6 0.10 2.54
11:53 pm 23:53 Cloudy with Mist and Fog 47 8.3 45 7.2 93 93 SSE 6 9 29.92 1013 6 10 0.09 2.29

Powered by AerisWeather